Weather History for Maun, Botswana

Change the Weather History Date:

Tuesday, March 13, 2012

  Actual Average Record
Temperature  
Mean Temperature 80 °F -  
Max Temperature 95 °F 87 °F 102 °F (2011)
Min Temperature 66 °F 64 °F 61 °F (2013)
Cooling Degree Days 16    
Growing Degree Days 30 (Base 50)    
Moisture  
Dew Point 63 °F    
Average Humidity 56    
Maximum Humidity 83    
Minimum Humidity 25    
Precipitation  
Precipitation 0.00 in - - ()
Sea Level Pressure  
Sea Level Pressure 30.01 in    
Wind  
Wind Speed 4 mph ()    
Max Wind Speed 17 mph    
Max Gust Speed -    
Visibility 6.2 miles    
Events Thunderstorm    
Averages and records for this station are not official NWS values.
T = Trace of Precipitation, MM = Missing Value Source: Averaged Metar Reports

Daily Weather History Graph

Daily Weather History Graph

Search for Another Location

Airport:

Trip Planner

Search our weather history database for the weather conditions in past years. The results will help you decide how hot, cold, wet, or windy it might be!

Date:

Astronomy

Mar. 13, 2012 Rise Set
Actual Time 6:28 AM CAT 6:42 PM CAT
Civil Twilight 6:06 AM CAT 7:04 PM CAT
Nautical Twilight 5:40 AM CAT 7:30 PM CAT
Astronomical Twilight 5:14 AM CAT 7:56 PM CAT
Moon 10:51 PM CAT (3/13) 11:28 AM CAT (3/13)
Length of Visible Light 12h 58m
Length of Day
12h 14m
Waning Gibbous, 68% of the Moon is Illuminated
Mar 13
Waning Gibbous
Mar 15
Last Quarter
Mar 22
New
Mar 30
First Quarter
Apr 6
Full

Hourly Weather History & Observations

Time (CAT) Temp. Heat Index Dew Point Humidity Pressure Visibility Wind Dir Wind Speed Gust Speed Precip Events Conditions
12:00 AM 77.0 °F - 60.8 °F 57% 30.01 in 6.2 mi South 3.5 mph - N/A   Partly Cloudy
1:00 AM 77.0 °F - 60.8 °F 57% 30.01 in 6.2 mi Variable 1.2 mph - N/A   Partly Cloudy
2:00 AM 72 °F - 63 °F 66%  in 6 mi NE 2.3 mph - -   Scattered Clouds
2:00 AM 71.6 °F - 62.6 °F 73% 29.98 in 6.2 mi Variable 2.3 mph - N/A   Partly Cloudy
4:00 AM 69.8 °F - 62.6 °F 78% 29.98 in - Variable 1.2 mph - N/A   Clear
5:00 AM 69.8 °F - 62.6 °F 78% 29.98 in - NNE 3.5 mph - N/A   Clear
6:00 AM 68.0 °F - 62.6 °F 83% 30.01 in - WSW 4.6 mph - N/A   Clear
7:00 AM 68.0 °F - 62.6 °F 83% 30.01 in - SSE 5.8 mph - N/A   Clear
8:00 AM 73 °F - 64 °F 66%  in 6 mi SE 1.2 mph - -   Scattered Clouds
8:00 AM 73.4 °F - 64.4 °F 73% 30.04 in - Variable 1.2 mph - N/A   Clear
9:00 AM 80.6 °F 82.3 °F 64.4 °F 58% 30.04 in - South 3.5 mph - N/A   Clear
10:00 AM 84.2 °F 85.6 °F 64.4 °F 51% 30.06 in - South 4.6 mph - N/A   Clear
11:00 AM 87.8 °F 89.4 °F 64.4 °F 46% 30.04 in 6.2 mi ESE 5.8 mph - N/A   Partly Cloudy
12:00 PM 89.6 °F 91.1 °F 64.4 °F 43% 30.01 in 6.2 mi WSW 6.9 mph - N/A   Partly Cloudy
1:00 PM 93.2 °F 93.3 °F 60.8 °F 34% 30.01 in 6.2 mi WNW 6.9 mph - N/A   Partly Cloudy
2:00 PM 94 °F - 62 °F 25%  in 6 mi NNE 6.9 mph - -   Partly Cloudy
2:00 PM 93.2 °F 94.1 °F 62.6 °F 36% 29.98 in 6.2 mi NNE 6.9 mph - N/A   Partly Cloudy
3:00 PM 95.0 °F 96.0 °F 62.6 °F 34% 29.92 in 6.2 mi NNW 8.1 mph - N/A   Partly Cloudy
4:00 PM 93.2 °F 94.9 °F 64.4 °F 38% 29.92 in 6.2 mi WNW 8.1 mph - N/A   Partly Cloudy
5:00 PM 82.4 °F 82.5 °F 59.0 °F 45% 29.95 in 6.2 mi ESE 17.3 mph - N/A Thunderstorm Thunderstorm
6:00 PM 82.4 °F 82.9 °F 60.8 °F 48% 29.95 in 6.2 mi West 9.2 mph - N/A   Partly Cloudy
7:00 PM 82.4 °F 83.4 °F 62.6 °F 51% 30.04 in 6.2 mi NE 5.8 mph - N/A   Partly Cloudy
8:00 PM 82 °F - 63 °F 43%  in 6 mi NNW 4.6 mph - - Thunderstorm Thunderstorm
8:00 PM 82.4 °F 83.4 °F 62.6 °F 51% 30.04 in 6.2 mi NNW 4.6 mph - N/A Thunderstorm Thunderstorm
9:00 PM 78.8 °F - 62.6 °F 57% 30.04 in 6.2 mi NW 4.6 mph - N/A   Partly Cloudy
10:00 PM 77.0 °F - 66.2 °F 69% 30.04 in 6.2 mi SSW 5.8 mph - N/A   Partly Cloudy
11:00 PM 77.0 °F - 66.2 °F 69% 30.06 in 6.2 mi South 6.9 mph - N/A   Partly Cloudy